owner,sensor,date,latitude,longitude,air_pressure(mBar),qcFlag 
COMPS,ioos:station:USF.COMPS:C12:1,2014-01-01T00:14:50Z,27.4980,-83.7220,1023.8,1111122 
COMPS,ioos:station:USF.COMPS:C12:1,2014-01-01T00:29:50Z,27.4980,-83.7220,1023.9,1111122 
COMPS,ioos:station:USF.COMPS:C12:1,2014-01-01T00:44:50Z,27.4980,-83.7220,1024.1,1111122 
COMPS,ioos:station:USF.COMPS:C12:1,2014-01-01T00:59:50Z,27.4980,-83.7220,1024.4,1111122 
COMPS,ioos:station:USF.COMPS:C12:1,2014-01-01T01:14:50Z,27.4980,-83.7220,1024.3,1111122 
COMPS,ioos:station:USF.COMPS:C12:1,2014-01-01T01:29:50Z,27.4980,-83.7220,1024.3,1111122 
COMPS,ioos:station:USF.COMPS:C12:1,2014-01-01T01:44:50Z,27.4980,-83.7220,1024.4,1111122 
COMPS,ioos:station:USF.COMPS:C12:1,2014-01-01T01:59:50Z,27.4980,-83.7220,1024.6,1111122 
COMPS,ioos:station:USF.COMPS:C12:1,2014-01-01T02:14:50Z,27.4980,-83.7220,1024.5,1111122 
COMPS,ioos:station:USF.COMPS:C12:1,2014-01-01T02:29:50Z,27.4980,-83.7220,1024.4,1111122 
COMPS,ioos:station:USF.COMPS:C12:1,2014-01-01T02:44:50Z,27.4980,-83.7220,1024.4,1111122 
COMPS,ioos:station:USF.COMPS:C12:1,2014-01-01T02:59:50Z,27.4980,-83.7220,1024.4,1111122 
COMPS,ioos:station:USF.COMPS:C12:1,2014-01-01T03:14:50Z,27.4980,-83.7220,1024.3,1111122 
COMPS,ioos:station:USF.COMPS:C12:1,2014-01-01T03:29:50Z,27.4980,-83.7220,1024.3,1111122 
COMPS,ioos:station:USF.COMPS:C12:1,2014-01-01T03:44:50Z,27.4980,-83.7220,1024.1,1111122 
COMPS,ioos:station:USF.COMPS:C12:1,2014-01-01T03:59:50Z,27.4980,-83.7220,1024.3,1111122 
COMPS,ioos:station:USF.COMPS:C12:1,2014-01-01T04:14:50Z,27.4980,-83.7220,1024.3,1111122 
COMPS,ioos:station:USF.COMPS:C12:1,2014-01-01T04:29:50Z,27.4980,-83.7220,1024.2,1111122 
COMPS,ioos:station:USF.COMPS:C12:1,2014-01-01T04:44:50Z,27.4980,-83.7220,1024.0,1111122 
COMPS,ioos:station:USF.COMPS:C12:1,2014-01-01T04:59:50Z,27.4980,-83.7220,1023.8,1111122 
COMPS,ioos:station:USF.COMPS:C12:1,2014-01-01T05:14:50Z,27.4980,-83.7220,1023.6,1111122 
COMPS,ioos:station:USF.COMPS:C12:1,2014-01-01T05:29:50Z,27.4980,-83.7220,1023.3,1111122 
COMPS,ioos:station:USF.COMPS:C12:1,2014-01-01T05:44:50Z,27.4980,-83.7220,1023.2,1111122 
COMPS,ioos:station:USF.COMPS:C12:1,2014-01-01T05:59:50Z,27.4980,-83.7220,1023.3,1111122 
COMPS,ioos:station:USF.COMPS:C12:1,2014-01-01T06:14:50Z,27.4980,-83.7220,1023.2,1111122 
COMPS,ioos:station:USF.COMPS:C12:1,2014-01-01T06:29:50Z,27.4980,-83.7220,1023.2,1111122 
COMPS,ioos:station:USF.COMPS:C12:1,2014-01-01T06:44:50Z,27.4980,-83.7220,1023.0,1111122 
COMPS,ioos:station:USF.COMPS:C12:1,2014-01-01T06:59:50Z,27.4980,-83.7220,1023.1,1111122 
COMPS,ioos:station:USF.COMPS:C12:1,2014-01-01T07:14:50Z,27.4980,-83.7220,1023.0,1111122 
COMPS,ioos:station:USF.COMPS:C12:1,2014-01-01T07:29:50Z,27.4980,-83.7220,1023.0,1111122 
COMPS,ioos:station:USF.COMPS:C12:1,2014-01-01T07:44:50Z,27.4980,-83.7220,1023.0,1111122 
COMPS,ioos:station:USF.COMPS:C12:1,2014-01-01T07:59:50Z,27.4980,-83.7220,1022.8,1111122 
COMPS,ioos:station:USF.COMPS:C12:1,2014-01-01T08:14:50Z,27.4980,-83.7220,1022.7,1111122 
COMPS,ioos:station:USF.COMPS:C12:1,2014-01-01T08:29:50Z,27.4980,-83.7220,1022.7,1111122 
COMPS,ioos:station:USF.COMPS:C12:1,2014-01-01T08:44:50Z,27.4980,-83.7220,1022.7,1111122 
COMPS,ioos:station:USF.COMPS:C12:1,2014-01-01T08:59:50Z,27.4980,-83.7220,1022.9,1111122 
COMPS,ioos:station:USF.COMPS:C12:1,2014-01-01T09:14:50Z,27.4980,-83.7220,1022.5,1111122 
COMPS,ioos:station:USF.COMPS:C12:1,2014-01-01T09:29:50Z,27.4980,-83.7220,1022.6,1111122 
COMPS,ioos:station:USF.COMPS:C12:1,2014-01-01T09:44:50Z,27.4980,-83.7220,1022.5,1111122 
COMPS,ioos:station:USF.COMPS:C12:1,2014-01-01T09:59:50Z,27.4980,-83.7220,1022.7,1111122 
COMPS,ioos:station:USF.COMPS:C12:1,2014-01-01T10:14:50Z,27.4980,-83.7220,1022.4,1111122 
COMPS,ioos:station:USF.COMPS:C12:1,2014-01-01T10:29:50Z,27.4980,-83.7220,1022.3,1111122 
COMPS,ioos:station:USF.COMPS:C12:1,2014-01-01T10:44:50Z,27.4980,-83.7220,1022.2,1111122 
COMPS,ioos:station:USF.COMPS:C12:1,2014-01-01T10:59:50Z,27.4980,-83.7220,1022.1,1111122 
COMPS,ioos:station:USF.COMPS:C12:1,2014-01-01T11:14:50Z,27.4980,-83.7220,1021.8,1111122 
COMPS,ioos:station:USF.COMPS:C12:1,2014-01-01T11:29:50Z,27.4980,-83.7220,1021.9,1111122 
COMPS,ioos:station:USF.COMPS:C12:1,2014-01-01T11:44:50Z,27.4980,-83.7220,1021.9,1111122 
COMPS,ioos:station:USF.COMPS:C12:1,2014-01-01T11:59:50Z,27.4980,-83.7220,1022.1,1111122 
COMPS,ioos:station:USF.COMPS:C12:1,2014-01-01T12:14:50Z,27.4980,-83.7220,1022.1,1111122 
COMPS,ioos:station:USF.COMPS:C12:1,2014-01-01T12:29:50Z,27.4980,-83.7220,1022.4,1111122 
COMPS,ioos:station:USF.COMPS:C12:1,2014-01-01T12:44:50Z,27.4980,-83.7220,1022.5,1111122 
COMPS,ioos:station:USF.COMPS:C12:1,2014-01-01T12:59:50Z,27.4980,-83.7220,1022.6,1111122 
COMPS,ioos:station:USF.COMPS:C12:1,2014-01-01T13:14:50Z,27.4980,-83.7220,1022.7,1111122 
COMPS,ioos:station:USF.COMPS:C12:1,2014-01-01T13:29:50Z,27.4980,-83.7220,1022.7,1111122 
COMPS,ioos:station:USF.COMPS:C12:1,2014-01-01T13:44:50Z,27.4980,-83.7220,1022.7,1111122 
COMPS,ioos:station:USF.COMPS:C12:1,2014-01-01T13:59:50Z,27.4980,-83.7220,1023.0,1111122 
COMPS,ioos:station:USF.COMPS:C12:1,2014-01-01T14:14:50Z,27.4980,-83.7220,1022.9,1111122 
COMPS,ioos:station:USF.COMPS:C12:1,2014-01-01T14:29:50Z,27.4980,-83.7220,1022.8,1111122 
COMPS,ioos:station:USF.COMPS:C12:1,2014-01-01T14:44:50Z,27.4980,-83.7220,1022.9,1111122 
COMPS,ioos:station:USF.COMPS:C12:1,2014-01-01T14:59:50Z,27.4980,-83.7220,1023.2,1111122 
COMPS,ioos:station:USF.COMPS:C12:1,2014-01-01T15:14:50Z,27.4980,-83.7220,1023.1,1111122 
COMPS,ioos:station:USF.COMPS:C12:1,2014-01-01T15:29:50Z,27.4980,-83.7220,1023.3,1111122 
COMPS,ioos:station:USF.COMPS:C12:1,2014-01-01T15:44:50Z,27.4980,-83.7220,1023.3,1111122 
COMPS,ioos:station:USF.COMPS:C12:1,2014-01-01T15:59:50Z,27.4980,-83.7220,1023.4,1111122 
COMPS,ioos:station:USF.COMPS:C12:1,2014-01-01T16:14:50Z,27.4980,-83.7220,1023.2,1111122 
COMPS,ioos:station:USF.COMPS:C12:1,2014-01-01T16:29:50Z,27.4980,-83.7220,1023.0,1111122 
COMPS,ioos:station:USF.COMPS:C12:1,2014-01-01T16:44:50Z,27.4980,-83.7220,1022.7,1111122 
COMPS,ioos:station:USF.COMPS:C12:1,2014-01-01T16:59:50Z,27.4980,-83.7220,1022.7,1111122 
COMPS,ioos:station:USF.COMPS:C12:1,2014-01-01T17:14:50Z,27.4980,-83.7220,1022.1,1111122 
COMPS,ioos:station:USF.COMPS:C12:1,2014-01-01T17:29:50Z,27.4980,-83.7220,1021.8,1111122 
COMPS,ioos:station:USF.COMPS:C12:1,2014-01-01T17:44:50Z,27.4980,-83.7220,1021.6,1111122 
COMPS,ioos:station:USF.COMPS:C12:1,2014-01-01T17:59:50Z,27.4980,-83.7220,1021.4,1111122 
COMPS,ioos:station:USF.COMPS:C12:1,2014-01-01T18:14:50Z,27.4980,-83.7220,1020.9,1111122 
COMPS,ioos:station:USF.COMPS:C12:1,2014-01-01T18:29:50Z,27.4980,-83.7220,1020.4,1111122 
COMPS,ioos:station:USF.COMPS:C12:1,2014-01-01T18:44:50Z,27.4980,-83.7220,1020.1,1111122 
COMPS,ioos:station:USF.COMPS:C12:1,2014-01-01T18:59:50Z,27.4980,-83.7220,1020.1,1111122 
COMPS,ioos:station:USF.COMPS:C12:1,2014-01-01T19:14:50Z,27.4980,-83.7220,1019.6,1111122 
COMPS,ioos:station:USF.COMPS:C12:1,2014-01-01T19:29:50Z,27.4980,-83.7220,1019.6,1111122 
COMPS,ioos:station:USF.COMPS:C12:1,2014-01-01T19:44:50Z,27.4980,-83.7220,1019.4,1111122 
COMPS,ioos:station:USF.COMPS:C12:1,2014-01-01T19:59:50Z,27.4980,-83.7220,1019.4,1111122 
COMPS,ioos:station:USF.COMPS:C12:1,2014-01-01T20:14:50Z,27.4980,-83.7220,1019.2,1111122 
COMPS,ioos:station:USF.COMPS:C12:1,2014-01-01T20:29:50Z,27.4980,-83.7220,1019.2,1111122 
COMPS,ioos:station:USF.COMPS:C12:1,2014-01-01T20:44:50Z,27.4980,-83.7220,1019.0,1111122 
COMPS,ioos:station:USF.COMPS:C12:1,2014-01-01T20:59:50Z,27.4980,-83.7220,1018.8,1111122 
COMPS,ioos:station:USF.COMPS:C12:1,2014-01-01T21:14:50Z,27.4980,-83.7220,1018.6,1111122 
COMPS,ioos:station:USF.COMPS:C12:1,2014-01-01T21:29:50Z,27.4980,-83.7220,1018.8,1111122 
COMPS,ioos:station:USF.COMPS:C12:1,2014-01-01T21:44:50Z,27.4980,-83.7220,1018.8,1111122 
COMPS,ioos:station:USF.COMPS:C12:1,2014-01-01T21:59:50Z,27.4980,-83.7220,1018.8,1111122 
COMPS,ioos:station:USF.COMPS:C12:1,2014-01-01T22:14:50Z,27.4980,-83.7220,1018.7,1111122 
COMPS,ioos:station:USF.COMPS:C12:1,2014-01-01T22:29:50Z,27.4980,-83.7220,1018.7,1111122 
COMPS,ioos:station:USF.COMPS:C12:1,2014-01-01T22:44:50Z,27.4980,-83.7220,1018.8,1111122 
COMPS,ioos:station:USF.COMPS:C12:1,2014-01-01T22:59:50Z,27.4980,-83.7220,1019.1,1111122 
COMPS,ioos:station:USF.COMPS:C12:1,2014-01-01T23:14:50Z,27.4980,-83.7220,1018.9,1111122 
COMPS,ioos:station:USF.COMPS:C12:1,2014-01-01T23:29:50Z,27.4980,-83.7220,1018.9,1111122 
COMPS,ioos:station:USF.COMPS:C12:1,2014-01-01T23:44:50Z,27.4980,-83.7220,1019.0,1111122 
COMPS,ioos:station:USF.COMPS:C12:1,2014-01-01T23:59:50Z,27.4980,-83.7220,1019.0,1111122 
COMPS,ioos:station:USF.COMPS:C12:1,2014-01-02T00:14:50Z,27.4980,-83.7220,1018.9,1111122 
COMPS,ioos:station:USF.COMPS:C12:1,2014-01-02T00:29:50Z,27.4980,-83.7220,1018.7,1111122 
COMPS,ioos:station:USF.COMPS:C12:1,2014-01-02T00:44:50Z,27.4980,-83.7220,1018.5,1111122 
COMPS,ioos:station:USF.COMPS:C12:1,2014-01-02T00:59:50Z,27.4980,-83.7220,1018.5,1111122 
COMPS,ioos:station:USF.COMPS:C12:1,2014-01-02T01:14:50Z,27.4980,-83.7220,1018.2,1111122 
COMPS,ioos:station:USF.COMPS:C12:1,2014-01-02T01:29:50Z,27.4980,-83.7220,1018.4,1111122 
COMPS,ioos:station:USF.COMPS:C12:1,2014-01-02T01:44:50Z,27.4980,-83.7220,1018.4,1111122 
COMPS,ioos:station:USF.COMPS:C12:1,2014-01-02T01:59:50Z,27.4980,-83.7220,1018.5,1111122 
COMPS,ioos:station:USF.COMPS:C12:1,2014-01-02T02:14:50Z,27.4980,-83.7220,1018.3,1111122 
COMPS,ioos:station:USF.COMPS:C12:1,2014-01-02T02:29:50Z,27.4980,-83.7220,1018.1,1111122 
COMPS,ioos:station:USF.COMPS:C12:1,2014-01-02T02:44:50Z,27.4980,-83.7220,1018.2,1111122 
COMPS,ioos:station:USF.COMPS:C12:1,2014-01-02T02:59:50Z,27.4980,-83.7220,1018.4,1111122 
COMPS,ioos:station:USF.COMPS:C12:1,2014-01-02T03:14:50Z,27.4980,-83.7220,1018.1,1111122 
COMPS,ioos:station:USF.COMPS:C12:1,2014-01-02T03:29:50Z,27.4980,-83.7220,1018.0,1111122 
COMPS,ioos:station:USF.COMPS:C12:1,2014-01-02T03:44:50Z,27.4980,-83.7220,1017.8,1111122 
COMPS,ioos:station:USF.COMPS:C12:1,2014-01-02T03:59:50Z,27.4980,-83.7220,1017.8,1111122 
COMPS,ioos:station:USF.COMPS:C12:1,2014-01-02T04:14:50Z,27.4980,-83.7220,1017.5,1111122 
COMPS,ioos:station:USF.COMPS:C12:1,2014-01-02T04:29:50Z,27.4980,-83.7220,1017.5,1111122 
COMPS,ioos:station:USF.COMPS:C12:1,2014-01-02T04:44:50Z,27.4980,-83.7220,1017.2,1111122 
COMPS,ioos:station:USF.COMPS:C12:1,2014-01-02T04:59:50Z,27.4980,-83.7220,1017.1,1111122 
COMPS,ioos:station:USF.COMPS:C12:1,2014-01-02T05:14:50Z,27.4980,-83.7220,1016.9,1111122 
COMPS,ioos:station:USF.COMPS:C12:1,2014-01-02T05:29:50Z,27.4980,-83.7220,1016.7,1111122 
COMPS,ioos:station:USF.COMPS:C12:1,2014-01-02T05:44:50Z,27.4980,-83.7220,1016.5,1111122 
COMPS,ioos:station:USF.COMPS:C12:1,2014-01-02T05:59:50Z,27.4980,-83.7220,1016.4,1111122 
COMPS,ioos:station:USF.COMPS:C12:1,2014-01-02T06:14:50Z,27.4980,-83.7220,1016.2,1111122 
COMPS,ioos:station:USF.COMPS:C12:1,2014-01-02T06:29:50Z,27.4980,-83.7220,1016.1,1111122 
COMPS,ioos:station:USF.COMPS:C12:1,2014-01-02T06:44:50Z,27.4980,-83.7220,1016.0,1111122 
COMPS,ioos:station:USF.COMPS:C12:1,2014-01-02T06:59:50Z,27.4980,-83.7220,1016.0,1111122 
COMPS,ioos:station:USF.COMPS:C12:1,2014-01-02T07:14:50Z,27.4980,-83.7220,1015.7,1111122 
COMPS,ioos:station:USF.COMPS:C12:1,2014-01-02T07:29:50Z,27.4980,-83.7220,1015.6,1111122 
COMPS,ioos:station:USF.COMPS:C12:1,2014-01-02T07:44:50Z,27.4980,-83.7220,1015.4,1111122 
COMPS,ioos:station:USF.COMPS:C12:1,2014-01-02T07:59:50Z,27.4980,-83.7220,1015.4,1111122 
COMPS,ioos:station:USF.COMPS:C12:1,2014-01-02T08:14:50Z,27.4980,-83.7220,1015.1,1111122 
COMPS,ioos:station:USF.COMPS:C12:1,2014-01-02T08:29:50Z,27.4980,-83.7220,1014.9,1111122 
COMPS,ioos:station:USF.COMPS:C12:1,2014-01-02T08:44:50Z,27.4980,-83.7220,1014.9,1111122 
COMPS,ioos:station:USF.COMPS:C12:1,2014-01-02T08:59:50Z,27.4980,-83.7220,1014.9,1111122 
COMPS,ioos:station:USF.COMPS:C12:1,2014-01-02T09:14:50Z,27.4980,-83.7220,1014.6,1111122 
COMPS,ioos:station:USF.COMPS:C12:1,2014-01-02T09:29:50Z,27.4980,-83.7220,1014.5,1111122 
COMPS,ioos:station:USF.COMPS:C12:1,2014-01-02T09:44:50Z,27.4980,-83.7220,1014.5,1111122 
COMPS,ioos:station:USF.COMPS:C12:1,2014-01-02T09:59:50Z,27.4980,-83.7220,1014.5,1111122 
COMPS,ioos:station:USF.COMPS:C12:1,2014-01-02T10:14:50Z,27.4980,-83.7220,1014.4,1111122 
COMPS,ioos:station:USF.COMPS:C12:1,2014-01-02T10:29:50Z,27.4980,-83.7220,1014.4,1111122 
COMPS,ioos:station:USF.COMPS:C12:1,2014-01-02T10:44:50Z,27.4980,-83.7220,1014.4,1111122 
COMPS,ioos:station:USF.COMPS:C12:1,2014-01-02T10:59:50Z,27.4980,-83.7220,1014.5,1111122 
COMPS,ioos:station:USF.COMPS:C12:1,2014-01-02T11:14:50Z,27.4980,-83.7220,1014.2,1111122 
COMPS,ioos:station:USF.COMPS:C12:1,2014-01-02T11:29:50Z,27.4980,-83.7220,1014.1,1111122 
COMPS,ioos:station:USF.COMPS:C12:1,2014-01-02T11:44:50Z,27.4980,-83.7220,1014.0,1111122 
COMPS,ioos:station:USF.COMPS:C12:1,2014-01-02T11:59:50Z,27.4980,-83.7220,1014.1,1111122 
COMPS,ioos:station:USF.COMPS:C12:1,2014-01-02T12:14:50Z,27.4980,-83.7220,1013.8,1111122 
COMPS,ioos:station:USF.COMPS:C12:1,2014-01-02T12:29:50Z,27.4980,-83.7220,1013.6,1111122 
COMPS,ioos:station:USF.COMPS:C12:1,2014-01-02T12:44:50Z,27.4980,-83.7220,1013.5,1111122 
COMPS,ioos:station:USF.COMPS:C12:1,2014-01-02T12:59:50Z,27.4980,-83.7220,1013.8,1111122 
COMPS,ioos:station:USF.COMPS:C12:1,2014-01-02T13:14:50Z,27.4980,-83.7220,1013.6,1111122 
COMPS,ioos:station:USF.COMPS:C12:1,2014-01-02T13:29:50Z,27.4980,-83.7220,1013.7,1111122 
COMPS,ioos:station:USF.COMPS:C12:1,2014-01-02T13:44:50Z,27.4980,-83.7220,1014.0,1111122 
COMPS,ioos:station:USF.COMPS:C12:1,2014-01-02T13:59:50Z,27.4980,-83.7220,1014.4,1111122 
COMPS,ioos:station:USF.COMPS:C12:1,2014-01-02T14:14:50Z,27.4980,-83.7220,1014.4,1111122 
COMPS,ioos:station:USF.COMPS:C12:1,2014-01-02T14:29:50Z,27.4980,-83.7220,1014.4,1111122 
COMPS,ioos:station:USF.COMPS:C12:1,2014-01-02T14:44:50Z,27.4980,-83.7220,1014.4,1111122 
COMPS,ioos:station:USF.COMPS:C12:1,2014-01-02T14:59:50Z,27.4980,-83.7220,1014.8,1111122 
COMPS,ioos:station:USF.COMPS:C12:1,2014-01-02T15:14:50Z,27.4980,-83.7220,1014.9,1111122 
COMPS,ioos:station:USF.COMPS:C12:1,2014-01-02T15:29:50Z,27.4980,-83.7220,1014.7,1111122 
COMPS,ioos:station:USF.COMPS:C12:1,2014-01-02T15:44:50Z,27.4980,-83.7220,1014.6,1111122 
COMPS,ioos:station:USF.COMPS:C12:1,2014-01-02T15:59:50Z,27.4980,-83.7220,1014.6,1111122 
COMPS,ioos:station:USF.COMPS:C12:1,2014-01-02T16:14:50Z,27.4980,-83.7220,1014.3,1111122 
COMPS,ioos:station:USF.COMPS:C12:1,2014-01-02T16:29:50Z,27.4980,-83.7220,1014.0,1111122 
COMPS,ioos:station:USF.COMPS:C12:1,2014-01-02T16:44:50Z,27.4980,-83.7220,1013.7,1111122 
COMPS,ioos:station:USF.COMPS:C12:1,2014-01-02T16:59:50Z,27.4980,-83.7220,1013.6,1111122 
COMPS,ioos:station:USF.COMPS:C12:1,2014-01-02T17:14:50Z,27.4980,-83.7220,1013.3,1111122 
COMPS,ioos:station:USF.COMPS:C12:1,2014-01-02T17:29:50Z,27.4980,-83.7220,1013.2,1111122 
COMPS,ioos:station:USF.COMPS:C12:1,2014-01-02T17:44:50Z,27.4980,-83.7220,1012.7,1111122 
COMPS,ioos:station:USF.COMPS:C12:1,2014-01-02T17:59:50Z,27.4980,-83.7220,1012.5,1111122 
COMPS,ioos:station:USF.COMPS:C12:1,2014-01-02T18:14:50Z,27.4980,-83.7220,1012.3,1111122 
COMPS,ioos:station:USF.COMPS:C12:1,2014-01-02T18:29:50Z,27.4980,-83.7220,1012.1,1111122 
COMPS,ioos:station:USF.COMPS:C12:1,2014-01-02T18:44:50Z,27.4980,-83.7220,1011.6,1111122 
COMPS,ioos:station:USF.COMPS:C12:1,2014-01-02T18:59:50Z,27.4980,-83.7220,1011.5,1111122 
COMPS,ioos:station:USF.COMPS:C12:1,2014-01-02T19:14:50Z,27.4980,-83.7220,1011.5,1111122 
COMPS,ioos:station:USF.COMPS:C12:1,2014-01-02T19:29:50Z,27.4980,-83.7220,1011.3,1111122 
COMPS,ioos:station:USF.COMPS:C12:1,2014-01-02T19:44:50Z,27.4980,-83.7220,1011.3,1111122 
COMPS,ioos:station:USF.COMPS:C12:1,2014-01-02T19:59:50Z,27.4980,-83.7220,1011.5,1111122 
COMPS,ioos:station:USF.COMPS:C12:1,2014-01-02T20:14:50Z,27.4980,-83.7220,1011.4,1111122 
COMPS,ioos:station:USF.COMPS:C12:1,2014-01-02T20:29:50Z,27.4980,-83.7220,1011.4,1111122 
COMPS,ioos:station:USF.COMPS:C12:1,2014-01-02T20:44:50Z,27.4980,-83.7220,1011.3,1111122 
COMPS,ioos:station:USF.COMPS:C12:1,2014-01-02T20:59:50Z,27.4980,-83.7220,1011.5,1111122 
COMPS,ioos:station:USF.COMPS:C12:1,2014-01-02T21:14:50Z,27.4980,-83.7220,1011.2,1111122 
COMPS,ioos:station:USF.COMPS:C12:1,2014-01-02T21:29:50Z,27.4980,-83.7220,1011.3,1111122 
COMPS,ioos:station:USF.COMPS:C12:1,2014-01-02T21:44:50Z,27.4980,-83.7220,1011.5,1111122 
COMPS,ioos:station:USF.COMPS:C12:1,2014-01-02T21:59:50Z,27.4980,-83.7220,1011.8,1111122 
COMPS,ioos:station:USF.COMPS:C12:1,2014-01-02T22:14:50Z,27.4980,-83.7220,1011.9,1111122 
COMPS,ioos:station:USF.COMPS:C12:1,2014-01-02T22:29:50Z,27.4980,-83.7220,1012.0,1111122 
COMPS,ioos:station:USF.COMPS:C12:1,2014-01-02T22:44:50Z,27.4980,-83.7220,1012.1,1111122 
COMPS,ioos:station:USF.COMPS:C12:1,2014-01-02T22:59:50Z,27.4980,-83.7220,1012.3,1111122 
COMPS,ioos:station:USF.COMPS:C12:1,2014-01-02T23:14:50Z,27.4980,-83.7220,1012.4,1111122 
COMPS,ioos:station:USF.COMPS:C12:1,2014-01-02T23:29:50Z,27.4980,-83.7220,1012.5,1111122 
COMPS,ioos:station:USF.COMPS:C12:1,2014-01-02T23:44:50Z,27.4980,-83.7220,1012.4,1111122 
COMPS,ioos:station:USF.COMPS:C12:1,2014-01-02T23:59:50Z,27.4980,-83.7220,1012.3,1111122 
COMPS,ioos:station:USF.COMPS:C12:1,2014-01-03T00:14:50Z,27.4980,-83.7220,1012.2,1111122 
COMPS,ioos:station:USF.COMPS:C12:1,2014-01-03T00:29:50Z,27.4980,-83.7220,1012.4,1111122 
COMPS,ioos:station:USF.COMPS:C12:1,2014-01-03T00:44:50Z,27.4980,-83.7220,1012.6,1111122 
COMPS,ioos:station:USF.COMPS:C12:1,2014-01-03T00:59:50Z,27.4980,-83.7220,1012.4,1111122 
COMPS,ioos:station:USF.COMPS:C12:1,2014-01-03T01:14:50Z,27.4980,-83.7220,1013.0,1111122 
COMPS,ioos:station:USF.COMPS:C12:1,2014-01-03T01:29:50Z,27.4980,-83.7220,1013.3,1111122 
COMPS,ioos:station:USF.COMPS:C12:1,2014-01-03T01:44:50Z,27.4980,-83.7220,1013.4,1111122 
COMPS,ioos:station:USF.COMPS:C12:1,2014-01-03T01:59:50Z,27.4980,-83.7220,1013.9,1111122 
COMPS,ioos:station:USF.COMPS:C12:1,2014-01-03T02:14:50Z,27.4980,-83.7220,1014.1,1111122 
COMPS,ioos:station:USF.COMPS:C12:1,2014-01-03T02:29:50Z,27.4980,-83.7220,1014.1,1111122 
COMPS,ioos:station:USF.COMPS:C12:1,2014-01-03T02:44:50Z,27.4980,-83.7220,1014.4,1111122 
COMPS,ioos:station:USF.COMPS:C12:1,2014-01-03T02:59:50Z,27.4980,-83.7220,1014.7,1111122 
COMPS,ioos:station:USF.COMPS:C12:1,2014-01-03T03:14:50Z,27.4980,-83.7220,1014.5,1111122 
COMPS,ioos:station:USF.COMPS:C12:1,2014-01-03T03:29:50Z,27.4980,-83.7220,1014.8,1111122 
COMPS,ioos:station:USF.COMPS:C12:1,2014-01-03T03:44:50Z,27.4980,-83.7220,1015.4,1111122 
COMPS,ioos:station:USF.COMPS:C12:1,2014-01-03T03:59:50Z,27.4980,-83.7220,1015.8,1111122 
COMPS,ioos:station:USF.COMPS:C12:1,2014-01-03T04:14:50Z,27.4980,-83.7220,1016.1,1111122 
COMPS,ioos:station:USF.COMPS:C12:1,2014-01-03T04:29:50Z,27.4980,-83.7220,1016.2,1111122 
COMPS,ioos:station:USF.COMPS:C12:1,2014-01-03T04:44:50Z,27.4980,-83.7220,1016.3,1111122 
COMPS,ioos:station:USF.COMPS:C12:1,2014-01-03T04:59:50Z,27.4980,-83.7220,1016.5,1111122 
COMPS,ioos:station:USF.COMPS:C12:1,2014-01-03T05:14:50Z,27.4980,-83.7220,1016.4,1111122 
COMPS,ioos:station:USF.COMPS:C12:1,2014-01-03T05:29:50Z,27.4980,-83.7220,1016.6,1111122 
COMPS,ioos:station:USF.COMPS:C12:1,2014-01-03T05:44:50Z,27.4980,-83.7220,1016.7,1111122 
COMPS,ioos:station:USF.COMPS:C12:1,2014-01-03T05:59:50Z,27.4980,-83.7220,1016.9,1111122 
COMPS,ioos:station:USF.COMPS:C12:1,2014-01-03T06:14:50Z,27.4980,-83.7220,1017.1,1111122 
COMPS,ioos:station:USF.COMPS:C12:1,2014-01-03T06:29:50Z,27.4980,-83.7220,1016.9,1111122 
COMPS,ioos:station:USF.COMPS:C12:1,2014-01-03T06:44:50Z,27.4980,-83.7220,1017.1,1111122 
COMPS,ioos:station:USF.COMPS:C12:1,2014-01-03T06:59:50Z,27.4980,-83.7220,1017.6,1111122 
COMPS,ioos:station:USF.COMPS:C12:1,2014-01-03T07:14:50Z,27.4980,-83.7220,1017.4,1111122 
COMPS,ioos:station:USF.COMPS:C12:1,2014-01-03T07:44:50Z,27.4980,-83.7220,1017.3,1111122 
COMPS,ioos:station:USF.COMPS:C12:1,2014-01-03T07:59:50Z,27.4980,-83.7220,1017.7,1111122 
COMPS,ioos:station:USF.COMPS:C12:1,2014-01-03T08:14:50Z,27.4980,-83.7220,1017.8,1111122 
COMPS,ioos:station:USF.COMPS:C12:1,2014-01-03T08:29:50Z,27.4980,-83.7220,1018.1,1111122 
COMPS,ioos:station:USF.COMPS:C12:1,2014-01-03T08:44:50Z,27.4980,-83.7220,1018.1,1111122 
COMPS,ioos:station:USF.COMPS:C12:1,2014-01-03T08:59:50Z,27.4980,-83.7220,1018.4,1111122 
COMPS,ioos:station:USF.COMPS:C12:1,2014-01-03T09:14:50Z,27.4980,-83.7220,1018.4,1111122 
COMPS,ioos:station:USF.COMPS:C12:1,2014-01-03T09:29:50Z,27.4980,-83.7220,1018.3,1111122 
COMPS,ioos:station:USF.COMPS:C12:1,2014-01-03T09:44:50Z,27.4980,-83.7220,1018.6,1111122 
COMPS,ioos:station:USF.COMPS:C12:1,2014-01-03T09:59:50Z,27.4980,-83.7220,1018.7,1111122 
COMPS,ioos:station:USF.COMPS:C12:1,2014-01-03T10:14:50Z,27.4980,-83.7220,1018.5,1111122 
COMPS,ioos:station:USF.COMPS:C12:1,2014-01-03T10:29:50Z,27.4980,-83.7220,1018.6,1111122 
COMPS,ioos:station:USF.COMPS:C12:1,2014-01-03T10:44:50Z,27.4980,-83.7220,1019.1,1111122 
COMPS,ioos:station:USF.COMPS:C12:1,2014-01-03T10:59:50Z,27.4980,-83.7220,1019.4,1111122 
COMPS,ioos:station:USF.COMPS:C12:1,2014-01-03T11:14:50Z,27.4980,-83.7220,1019.3,1111122 
COMPS,ioos:station:USF.COMPS:C12:1,2014-01-03T11:29:50Z,27.4980,-83.7220,1019.4,1111122 
COMPS,ioos:station:USF.COMPS:C12:1,2014-01-03T11:44:50Z,27.4980,-83.7220,1019.4,1111122 
COMPS,ioos:station:USF.COMPS:C12:1,2014-01-03T11:59:50Z,27.4980,-83.7220,1020.0,1111122 
COMPS,ioos:station:USF.COMPS:C12:1,2014-01-03T12:14:50Z,27.4980,-83.7220,1020.1,1111122 
COMPS,ioos:station:USF.COMPS:C12:1,2014-01-03T12:29:50Z,27.4980,-83.7220,1020.3,1111122 
COMPS,ioos:station:USF.COMPS:C12:1,2014-01-03T12:44:50Z,27.4980,-83.7220,1020.3,1111122 
COMPS,ioos:station:USF.COMPS:C12:1,2014-01-03T12:59:50Z,27.4980,-83.7220,1020.9,1111122 
COMPS,ioos:station:USF.COMPS:C12:1,2014-01-03T13:14:50Z,27.4980,-83.7220,1020.9,1111122 
COMPS,ioos:station:USF.COMPS:C12:1,2014-01-03T13:29:50Z,27.4980,-83.7220,1021.3,1111122 
COMPS,ioos:station:USF.COMPS:C12:1,2014-01-03T13:44:50Z,27.4980,-83.7220,1021.8,1111122 
COMPS,ioos:station:USF.COMPS:C12:1,2014-01-03T13:59:50Z,27.4980,-83.7220,1022.0,1111122 
COMPS,ioos:station:USF.COMPS:C12:1,2014-01-03T14:14:50Z,27.4980,-83.7220,1021.9,1111122 
COMPS,ioos:station:USF.COMPS:C12:1,2014-01-03T14:29:50Z,27.4980,-83.7220,1022.3,1111122 
COMPS,ioos:station:USF.COMPS:C12:1,2014-01-03T14:44:50Z,27.4980,-83.7220,1022.6,1111122 
COMPS,ioos:station:USF.COMPS:C12:1,2014-01-03T14:59:50Z,27.4980,-83.7220,1022.5,1111122 
COMPS,ioos:station:USF.COMPS:C12:1,2014-01-03T15:14:50Z,27.4980,-83.7220,1022.6,1111122 
COMPS,ioos:station:USF.COMPS:C12:1,2014-01-03T15:29:50Z,27.4980,-83.7220,1022.9,1111122 
COMPS,ioos:station:USF.COMPS:C12:1,2014-01-03T15:44:50Z,27.4980,-83.7220,1022.9,1111122 
COMPS,ioos:station:USF.COMPS:C12:1,2014-01-03T15:59:50Z,27.4980,-83.7220,1023.2,1111122 
COMPS,ioos:station:USF.COMPS:C12:1,2014-01-03T16:14:50Z,27.4980,-83.7220,1023.0,1111122 
COMPS,ioos:station:USF.COMPS:C12:1,2014-01-03T16:29:50Z,27.4980,-83.7220,1023.0,1111122 
COMPS,ioos:station:USF.COMPS:C12:1,2014-01-03T16:44:50Z,27.4980,-83.7220,1022.5,1111122 
COMPS,ioos:station:USF.COMPS:C12:1,2014-01-03T16:59:50Z,27.4980,-83.7220,1022.6,1111122 
COMPS,ioos:station:USF.COMPS:C12:1,2014-01-03T17:14:50Z,27.4980,-83.7220,1022.3,1111122 
COMPS,ioos:station:USF.COMPS:C12:1,2014-01-03T17:29:50Z,27.4980,-83.7220,1022.2,1111122 
COMPS,ioos:station:USF.COMPS:C12:1,2014-01-03T17:44:50Z,27.4980,-83.7220,1021.9,1111122 
COMPS,ioos:station:USF.COMPS:C12:1,2014-01-03T17:59:50Z,27.4980,-83.7220,1021.8,1111122 
COMPS,ioos:station:USF.COMPS:C12:1,2014-01-03T18:14:50Z,27.4980,-83.7220,1021.4,1111122 
COMPS,ioos:station:USF.COMPS:C12:1,2014-01-03T18:29:50Z,27.4980,-83.7220,1021.5,1111122 
COMPS,ioos:station:USF.COMPS:C12:1,2014-01-03T18:44:50Z,27.4980,-83.7220,1021.6,1111122 
COMPS,ioos:station:USF.COMPS:C12:1,2014-01-03T18:59:50Z,27.4980,-83.7220,1021.7,1111122 
COMPS,ioos:station:USF.COMPS:C12:1,2014-01-03T19:14:50Z,27.4980,-83.7220,1021.3,1111122 